"Pseudo-MPEC" for P221QfG

Created 2024 Nov 19 4:31:03 UT using Find_Orb

Click here for an explanation of pseudo-MPECs

 
 Astrometry: 
     P221QfG* C2024 11 12.55701208 14 35.464+14 18 10.05   ~BCGH 20.96wXNEOCPF52
     P221QfG  C2024 11 12.58367708 14 46.032+14 22 22.59   ~BCGH 21.00wXNEOCPF52
     P221QfG  C2024 11 12.59698508 14 51.311+14 24 28.50   ~BCGH 20.93wXNEOCPF52

Station data:
(F52) Pan-STARRS 2, Haleakala  (N20.707382 W156.255910)  US/Hawaii.
   Observers J. Bulger, T. Dukes, T. Lowe, A. Schultz, M. Willman. Measurers
   K. Chambers, S. Chastel, T. de Boer, L. Denneau, J. Fairlamb, H.
   Flewelling, M. Huber, C.-C. Lin, E. Magnier, Y. Ramanjooloo, R. Wainscoat,
   R. Weryk. 1.8-m Ritchey-Chrétien + CCD.

Orbital elements:  P221QfG
   Perihelion 2024 Dec 11.75740 +/- 26 TT = 18:10:39 (JD 2460656.25740)
Epoch 2024 Nov 13.0 TT = JDT 2460627.5   Earth MOID: 0.0581   Ma: 0.0046
M 340.87206627 +/- 50               (J2000 ecliptic)             AutoNEOCP
n   0.66514826 +/- 0.675            Peri.   28.26993 +/- 57
a   1.29974176 +/- 0.88             Node    60.22538 +/- 4.3
e   0.2116491 +/- 0.226             Incl.   27.53825 +/- 41
P   1.482/541.222d         H 22.44  G  0.15   U 12.5  SR
q 1.02465255 +/- 0.332    Q 1.57483097 +/- 16.5
From 3 observations 2024 Nov. 12 (57.6 min); mean residual 0".04
Residuals in arcseconds: 
241112 F52  .02+  .01-    241112 F52  .07-  .04+    241112 F52  .05+  .03-    

Ephemerides (geocentric):
Date (UTC) HH   RA             Dec           delta  r     elong  mag " sig PA
---- --------  ------------   ------------  ------ ------ -----  --- --------
2024 11 19 05  09 10 53.023   +33 05 58.16  .14880 1.0395 106.2 20.7  52d  79
2024 11 19 06  09 11 18.581   +33 13 06.80  .14880 1.0395 106.1 20.7  52d  79
2024 11 19 07  09 11 44.199   +33 20 15.12  .14881 1.0394 106.1 20.7  52d  79
2024 11 19 08  09 12 09.879   +33 27 23.11  .14881 1.0394 106.1 20.7  52d  79
2024 11 19 09  09 12 35.619   +33 34 30.75  .14882 1.0393 106.1 20.7  52d  79
2024 11 19 10  09 13 01.421   +33 41 38.05  .14883 1.0393 106.1 20.7  52d  79
2024 11 19 11  09 13 27.284   +33 48 44.99  .14883 1.0392 106.0 20.7  52d  79
2024 11 19 12  09 13 53.208   +33 55 51.57  .14884 1.0392 106.0 20.7  52d  79
2024 11 19 13  09 14 19.194   +34 02 57.77  .14885 1.0391 106.0 20.7  52d  79
2024 11 19 14  09 14 45.241   +34 10 03.60  .14886 1.0391 106.0 20.7  52d  79
2024 11 19 15  09 15 11.350   +34 17 09.05  .14887 1.0390 106.0 20.7  52d  79
2024 11 19 16  09 15 37.520   +34 24 14.10  .14889 1.0389 105.9 20.7  52d  78
2024 11 19 17  09 16 03.753   +34 31 18.75  .14890 1.0389 105.9 20.7  52d  78
2024 11 19 18  09 16 30.047   +34 38 22.99  .14892 1.0388 105.9 20.7  52d  78
2024 11 19 19  09 16 56.403   +34 45 26.81  .14893 1.0388 105.9 20.7  52d  78
2024 11 19 20  09 17 22.821   +34 52 30.22  .14895 1.0387 105.9 20.7  52d  78
2024 11 19 21  09 17 49.302   +34 59 33.19  .14896 1.0387 105.8 20.7  52d  78
2024 11 19 22  09 18 15.844   +35 06 35.72  .14898 1.0386 105.8 20.7  52d  78
2024 11 19 23  09 18 42.449   +35 13 37.81  .14900 1.0386 105.8 20.7  52d  78
2024 11 20 00  09 19 09.116   +35 20 39.44  .14902 1.0385 105.8 20.7  52d  78
2024 11 20 01  09 19 35.845   +35 27 40.61  .14904 1.0385 105.7 20.7  52d  78
2024 11 20 02  09 20 02.637   +35 34 41.32  .14906 1.0384 105.7 20.7  52d  78
2024 11 20 03  09 20 29.491   +35 41 41.55  .14909 1.0384 105.7 20.7  52d  77
2024 11 20 04  09 20 56.408   +35 48 41.30  .14911 1.0383 105.7 20.7  52d  77
2024 11 20 05  09 21 23.387   +35 55 40.55  .14914 1.0383 105.7 20.7  52d  77
2024 11 20 06  09 21 50.430   +36 02 39.31  .14916 1.0382 105.6 20.7  51d  77
2024 11 20 07  09 22 17.535   +36 09 37.57  .14919 1.0382 105.6 20.7  51d  77
2024 11 20 08  09 22 44.702   +36 16 35.31  .14922 1.0381 105.6 20.7  51d  77
2024 11 20 09  09 23 11.933   +36 23 32.54  .14924 1.0381 105.6 20.7  51d  77
2024 11 20 10  09 23 39.227   +36 30 29.23  .14927 1.0380 105.5 20.7  51d  77
2024 11 20 11  09 24 06.583   +36 37 25.40  .14930 1.0380 105.5 20.7  51d  77
2024 11 20 12  09 24 34.003   +36 44 21.02  .14934 1.0379 105.5 20.7  51d  77
2024 11 20 13  09 25 01.486   +36 51 16.09  .14937 1.0379 105.5 20.7  51d  76
2024 11 20 14  09 25 29.032   +36 58 10.61  .14940 1.0378 105.5 20.7  51d  76
2024 11 20 15  09 25 56.641   +37 05 04.57  .14944 1.0378 105.4 20.7  51d  76
2024 11 20 16  09 26 24.314   +37 11 57.95  .14947 1.0377 105.4 20.7  51d  76
2024 11 20 17  09 26 52.049   +37 18 50.76  .14951 1.0377 105.4 20.7  51d  76
2024 11 20 18  09 27 19.849   +37 25 42.99  .14954 1.0376 105.4 20.7  51d  76
2024 11 20 19  09 27 47.711   +37 32 34.62  .14958 1.0376 105.3 20.7  51d  76
2024 11 20 20  09 28 15.637   +37 39 25.66  .14962 1.0375 105.3 20.7  51d  76
2024 11 20 21  09 28 43.626   +37 46 16.09  .14966 1.0374 105.3 20.7  51d  76
2024 11 20 22  09 29 11.679   +37 53 05.91  .14970 1.0374 105.3 20.7  51d  75
2024 11 20 23  09 29 39.796   +37 59 55.11  .14974 1.0373 105.2 20.7  51d  75
2024 11 21 00  09 30 07.976   +38 06 43.68  .14979 1.0373 105.2 20.7  51d  75
2024 11 21 01  09 30 36.220   +38 13 31.63  .14983 1.0372 105.2 20.7  51d  75
2024 11 21 02  09 31 04.527   +38 20 18.93  .14987 1.0372 105.2 20.8  51d  75
2024 11 21 03  09 31 32.898   +38 27 05.58  .14992 1.0372 105.1 20.8  50d  75
2024 11 21 04  09 32 01.333   +38 33 51.59  .14997 1.0371 105.1 20.8  50d  75